Location: Peterborough
(44.3091°N, 78.3197°W)
Time: 05:10:47
(UTC-04:00)

Vanguard 3 - Pass Details

Date: 27 February 2024
Orbit: 510 x 3236 km, 33.3° (Epoch: 12 April)

Event Time Altitude Azimuth Distance (km) Brightness Sun altitude
Rises 17:54:40 0° 201° (SSW) 6,122 12.1 -0.2°
Reaches altitude 10° 17:59:17 10° 191° (S) 5,458 11.7 -1.0°
Maximum altitude 18:12:47 28° 140° (SE) 4,695 10.8 -3.4°
Drops below altitude 10° 18:27:37 10° 91° (E) 6,067 10.9 -6.0°
Enters shadow 18:29:25 - 88° (E) 6,333 11.0 -6.4°
Sets 18:33:02 0° 82° (E) 6,900 - -7.0°
